Hourly Data Report for June 29, 2021

DRYDEN REGIONAL
ONTARIO
Current Station Operator: NAVCAN

49°49'39.000" N
92°44'39.000" W
412.70 m
6032125
71527
YHD

Download Data

Hourly Data (June 2021)
Hourly Data Report for June 29, 2021
TIME
LST
Temp Definition
°C
Dew Point Definition
°C
Rel Hum Definition
%
Precip. Amount Definition
mm

Wind Dir Definition
10's deg

Wind Spd Definition
km/h
Visibility Definition
km
Stn Press Definition
kPa
Hmdx Definition


Wind Chill Definition


Weather Definition


00:00 18.3 16.4 88 0.0   0 16.1 97.02     LegendNANA
01:00 17.2 16.7 97 0.0 3 4 16.1 96.99     LegendNANA
02:00 16.9 14.6 86 0.0 LegendMM 4 16.1 96.97     LegendNANA
03:00 16.4 15.8 96 0.0   0 16.1 96.99     LegendNANA
04:00 14.9 14.3 96 0.0   0 16.1 96.99     LegendNANA
05:00 13.4 12.5 94 0.0 30 9 16.1 97.02     LegendNANA
06:00 17.1 13.3 78 0.0 LegendMM 4 16.1 97.02     LegendNANA
07:00 19.3 12.3 64 0.0 36 5 16.1 97.02     LegendNANA
08:00 22.5 12.5 53 0.0   0 16.1 97.04 25   LegendNANA
09:00 23.6 10.1 42 0.0 33 11 16.1 97.02 25   LegendNANA
10:00 24.7 5.2 28 0.0 35 9 16.1 97.00     LegendNANA
11:00 25.6 6.0 28 0.0 1 15 16.1 96.97 25   LegendNANA
12:00 26.0 5.6 27 0.0 30 13 16.1 96.94 25   LegendNANA
13:00 27.0 8.2 30 0.0 31 11 16.1 96.91 27   LegendNANA
14:00 25.3 9.9 37 0.0 33 5 16.1 96.92 27   LegendNANA
15:00 25.3 10.8 40 0.0 33 8 16.1 96.91 27   LegendNANA
16:00 26.0 10.0 36 0.0 34 8 16.1 96.88 27   LegendNANA
17:00 24.6 11.7 44 0.0 35 8 16.1 96.88 27   LegendNANA
18:00 24.7 11.1 42 0.0 36 9 16.1 96.87 27   LegendNANA
19:00 23.5 9.6 41 0.0 33 5 12.9 96.88 25   LegendNANA
20:00 21.8 8.7 43 0.0 34 8 12.9 96.89     LegendNANA
21:00 21.7 5.7 35 0.0 34 8 16.1 96.91     LegendNANA
22:00 21.7 5.3 34 0.0 32 8 16.1 96.92     LegendNANA
23:00 19.5 7.6 46 0.0   0 14.5 96.94     LegendNANA

Notes on Data Quality.

Legend

  • E = Estimated
  • M = Missing
  • NA = Not Available*
  • [empty] = Indicates an unobserved value
Date modified: